Measurement date,Total daily rainfall,Maximum daily air temperature,Minimum daily air temperature
Date ,Rainfall,Air temperature,Air temperature
Units: Year month day,Units: millimetre,Units: degree Celsius,Units: degree Celsius
2012-01-01,3.4,11.69,5.64
2012-01-02,9.5,8.39,2.52
2012-01-03,35.5,12.27,6.07
2012-01-04,4.2,8.99,6.03
2012-01-05,9.5,10.71,7.20
2012-01-06,0.6,9.80,3.83
2012-01-07,1.3,10.23,7.64
2012-01-08,0.2,10.58,7.43
2012-01-09,0.0,11.34,8.80
2012-01-10,0.6,10.92,7.33
2012-01-11,0.0,11.07,7.01
2012-01-12,0.8,10.58,3.82
2012-01-13,0.2,7.22,-1.57
2012-01-14,0.2,7.26,-1.21
2012-01-15,0.0,6.38,3.14
2012-01-16,0.0,6.44,-2.38
2012-01-17,0.2,9.55,-1.81
2012-01-18,1.7,12.03,9.08
2012-01-19,4.4,11.44,6.35
2012-01-20,0.6,10.50,6.32
2012-01-21,1.5,10.34,7.74
2012-01-22,0.0,10.12,4.86
2012-01-23,2.7,9.36,4.79
2012-01-24,7.8,10.36,3.96
2012-01-25,3.2,10.73,6.24
2012-01-26,6.5,8.48,2.87
2012-01-27,4.4,9.13,3.20
2012-01-28,0.2,6.60,-0.61
2012-01-29,7.6,3.93,-1.80
2012-01-30,9.9,2.68,0.34
2012-01-31,0.4,1.80,-1.03
2012-02-01,0.0,1.87,-2.28
2012-02-02,0.0,0.93,-5.38
2012-02-03,0.0,1.20,-7.67
2012-02-04,5.0,7.82,-3.10
2012-02-05,0.0,7.91,3.07
2012-02-06,0.6,7.57,3.30
2012-02-07,0.0,5.29,-1.70
2012-02-08,0.2,0.43,-6.08
2012-02-09,2.3,6.14,-2.99
2012-02-10,8.6,4.39,0.80
2012-02-11,0.0,3.18,-4.78
2012-02-12,0.4,7.07,-4.88
2012-02-13,0.6,7.54,3.39
2012-02-14,0.2,8.81,2.57
2012-02-15,0.0,8.81,6.70
2012-02-16,0.0,9.23,6.36
2012-02-17,0.6,10.72,7.35
2012-02-18,5.5,9.09,2.40
2012-02-19,0.2,7.99,-1.22
2012-02-20,0.0,8.93,-2.62
2012-02-21,0.0,11.09,5.94
2012-02-22,2.5,11.42,7.21
2012-02-23,0.6,11.91,8.44
2012-02-24,0.0,11.17,8.17
2012-02-25,1.1,11.79,6.32
2012-02-26,0.0,12.94,0.41
2012-02-27,1.1,11.26,7.32
2012-02-28,0.0,11.22,8.76
2012-02-29,0.0,16.23,3.70
2012-03-01,0.2,15.15,2.62
2012-03-02,0.2,13.88,3.37
2012-03-03,2.7,12.58,6.30
2012-03-04,11.3,8.49,3.85
2012-03-05,0.0,9.35,2.15
2012-03-06,0.6,10.91,-1.58
2012-03-07,2.1,11.24,4.13
2012-03-08,0.0,12.52,3.51
2012-03-09,0.0,11.91,7.86
2012-03-10,0.2,12.25,7.36
2012-03-11,0.2,15.03,6.76
2012-03-12,0.2,15.79,3.73
2012-03-13,0.4,11.29,1.88
2012-03-14,0.0,9.39,4.87
2012-03-15,0.0,9.86,4.72
2012-03-16,0.0,9.91,6.21
2012-03-17,6.9,11.97,2.53
2012-03-18,1.1,10.15,2.22
2012-03-19,0.2,12.43,-1.04
2012-03-20,0.0,10.71,7.37
2012-03-21,0.0,13.84,5.34
2012-03-22,3.2,14.27,5.34
2012-03-23,0.2,16.15,3.49
2012-03-24,0.0,18.70,4.45
2012-03-25,0.0,18.15,5.59
2012-03-26,0.0,18.23,4.10
2012-03-27,0.0,17.69,3.72
2012-03-28,0.0,20.76,1.78
2012-03-29,0.0,19.56,1.80
2012-03-30,0.0,13.91,5.76
2012-03-31,0.0,11.44,4.37
2012-04-01,0.0,11.78,1.03
2012-04-02,0.2,13.93,-0.69
2012-04-03,4.4,13.46,3.18
2012-04-04,0.8,8.05,2.85
2012-04-05,0.4,8.45,3.84
2012-04-06,0.2,11.87,-1.65
2012-04-07,0.8,13.56,6.26
2012-04-08,0.4,12.74,7.16
2012-04-09,18.5,11.03,6.10
2012-04-10,3.4,11.45,3.80
2012-04-11,2.3,11.81,3.64
2012-04-12,0.2,12.80,2.93
2012-04-13,2.5,13.54,-0.47
2012-04-14,0.6,9.79,0.94
2012-04-15,0.0,10.39,1.13
2012-04-16,0.0,12.56,-0.50
2012-04-17,10.7,11.46,4.93
2012-04-18,11.8,8.76,5.55
2012-04-19,3.6,10.77,5.31
2012-04-20,4.6,11.39,3.64
2012-04-21,1.9,11.64,2.36
2012-04-22,10.1,10.55,3.60
2012-04-23,12.8,7.79,4.36
2012-04-24,5.5,13.08,4.07
2012-04-25,35.1,11.56,4.83
2012-04-26,6.5,12.42,6.92
2012-04-27,1.9,13.03,6.65
2012-04-28,4.8,8.52,6.38
2012-04-29,30.7,9.85,3.59
2012-04-30,19.5,12.46,6.30
2012-05-01,8.4,15.28,6.55
2012-05-02,0.2,18.97,2.84
2012-05-03,3.6,10.14,7.61
2012-05-04,0.0,13.04,6.71
2012-05-05,0.8,10.05,4.06
2012-05-06,0.2,11.85,1.18
2012-05-07,8.0,15.54,5.47
2012-05-08,2.3,16.34,8.23
2012-05-09,6.9,14.40,7.12
2012-05-10,1.7,16.98,10.20
2012-05-11,0.0,12.71,5.40
2012-05-12,0.0,14.43,1.40
2012-05-13,0.2,15.79,2.30
2012-05-14,2.3,13.41,5.96
2012-05-15,0.6,11.38,3.34
2012-05-16,0.2,15.50,0.72
2012-05-17,0.6,12.94,5.44
2012-05-18,0.0,12.92,3.65
2012-05-19,0.0,15.71,4.89
2012-05-20,3.2,16.43,6.51
2012-05-21,0.2,16.89,2.82
2012-05-22,0.2,20.25,5.79
2012-05-23,0.0,20.32,8.03
2012-05-24,0.0,25.24,9.53
2012-05-25,0.2,26.49,13.32
2012-05-26,0.0,23.43,12.20
2012-05-27,4.4,18.52,9.06
2012-05-28,0.0,20.19,7.07
2012-05-29,0.0,22.12,9.56
2012-05-30,0.0,20.63,9.05
2012-05-31,0.0,20.08,11.84
2012-06-01,0.0,21.02,13.48
2012-06-02,5.3,18.56,10.35
2012-06-03,5.0,15.84,10.71
2012-06-04,0.0,16.22,8.49
2012-06-05,13.7,18.40,9.08
2012-06-06,2.7,18.19,11.34
2012-06-07,19.7,16.46,11.29
2012-06-08,13.7,14.07,9.89
2012-06-09,0.6,16.63,8.87
2012-06-10,5.3,14.08,10.25
2012-06-11,15.5,16.76,9.95
2012-06-12,11.3,17.83,9.53
2012-06-13,29.0,16.65,8.93
2012-06-14,12.0,13.18,8.15
2012-06-15,2.1,16.09,11.61
2012-06-16,5.7,15.20,11.07
2012-06-17,4.4,17.29,10.20
2012-06-18,1.1,18.23,7.35
2012-06-19,0.0,20.26,6.89
2012-06-20,11.3,17.75,4.61
2012-06-21,18.5,15.29,9.75
2012-06-22,6.3,16.32,10.73
2012-06-23,12.2,16.70,10.57
2012-06-24,1.5,18.41,10.01
2012-06-25,0.4,19.60,9.79
2012-06-26,2.9,20.93,11.23
2012-06-27,1.5,22.15,14.96
2012-06-28,1.1,23.14,14.69
2012-06-29,0.6,18.64,13.36
2012-06-30,7.1,17.95,9.89
2012-07-01,1.9,18.99,8.80
2012-07-02,2.3,18.69,13.52
2012-07-03,7.6,17.13,14.28
2012-07-04,0.6,19.78,13.17
2012-07-05,0.0,18.54,12.83
2012-07-06,10.5,18.54,11.43
2012-07-07,17.2,16.57,11.58
2012-07-08,0.0,18.94,11.20
2012-07-09,1.5,18.43,11.09
2012-07-10,2.7,17.01,11.44
2012-07-11,1.5,18.09,10.59
2012-07-12,22.3,15.79,8.84
2012-07-13,4.2,17.62,11.58
2012-07-14,1.1,18.28,11.29
2012-07-15,1.9,17.48,10.01
2012-07-16,6.3,16.65,12.77
2012-07-17,0.6,21.68,13.63
2012-07-18,10.3,17.84,13.02
2012-07-19,0.4,18.11,10.44
2012-07-20,0.0,19.48,9.20
2012-07-21,0.0,20.83,7.85
2012-07-22,0.0,23.29,8.82
2012-07-23,0.2,24.39,7.66
2012-07-24,0.0,27.66,7.11
2012-07-25,0.0,27.41,8.30
2012-07-26,0.0,26.68,12.12
2012-07-27,0.0,21.86,10.89
2012-07-28,0.0,18.19,9.89
2012-07-29,7.6,18.15,10.41
2012-07-30,2.9,18.58,10.05
2012-07-31,1.3,20.65,12.40
2012-08-01,2.1,21.00,13.90
2012-08-02,12.2,18.98,11.62
2012-08-03,5.0,19.11,10.46
2012-08-04,3.8,19.75,12.39
2012-08-05,15.5,18.65,12.12
2012-08-06,2.1,16.90,11.03
2012-08-07,2.3,19.69,12.09
2012-08-08,1.3,21.14,16.10
2012-08-09,0.0,26.80,15.24
2012-08-10,0.0,24.65,12.73
2012-08-11,0.6,22.13,13.57
2012-08-12,0.0,22.80,13.19
2012-08-13,0.4,22.03,15.15
2012-08-14,1.3,23.20,12.90
2012-08-15,9.5,19.50,15.41
2012-08-16,12.8,20.03,13.80
2012-08-17,5.5,23.35,16.01
2012-08-18,0.6,23.46,16.17
2012-08-19,0.6,21.83,14.78
2012-08-20,0.0,22.62,14.40
2012-08-21,3.8,20.75,12.88
2012-08-22,0.2,19.67,12.75
2012-08-23,0.4,19.57,12.14
2012-08-24,7.6,19.77,12.22
2012-08-25,3.2,18.31,14.00
2012-08-26,0.2,19.25,11.70
2012-08-27,4.6,18.22,14.15
2012-08-28,0.0,20.61,13.30
2012-08-29,12.8,18.66,13.12
2012-08-30,3.8,16.66,9.28
2012-08-31,0.0,17.77,6.35
2012-09-01,0.0,20.69,12.27
2012-09-02,0.4,17.68,12.16
2012-09-03,0.0,22.18,12.32
2012-09-04,0.6,19.49,10.80
2012-09-05,0.0,19.39,8.60
2012-09-06,0.0,21.83,5.57
2012-09-07,0.2,23.26,5.11
2012-09-08,0.2,21.90,4.13
2012-09-09,0.8,20.58,8.50
2012-09-10,1.3,18.77,14.46
2012-09-11,0.6,15.85,10.45
2012-09-12,2.3,17.80,9.61
2012-09-13,0.2,17.77,4.78
2012-09-14,1.5,17.31,11.08
2012-09-15,0.2,18.45,8.48
2012-09-16,1.1,18.63,12.04
2012-09-17,0.2,18.02,10.18
2012-09-18,2.5,15.50,7.24
2012-09-19,0.2,15.76,6.70
2012-09-20,0.0,14.82,7.60
2012-09-21,0.0,15.74,6.41
2012-09-22,0.2,14.31,4.79
2012-09-23,21.2,10.76,8.35
2012-09-24,35.3,15.35,9.04
2012-09-25,4.4,16.05,8.32
2012-09-26,11.1,15.35,9.44
2012-09-27,2.1,14.82,9.07
2012-09-28,1.5,15.58,10.35
2012-09-29,0.0,14.72,8.63
2012-09-30,1.9,16.21,9.59
2012-10-01,3.2,16.31,9.79
2012-10-02,3.8,16.72,10.89
2012-10-03,2.9,13.65,8.83
2012-10-04,5.7,15.44,6.76
2012-10-05,33.8,15.80,8.67
2012-10-06,10.7,14.36,4.34
2012-10-07,0.2,13.32,1.99
2012-10-08,6.5,17.07,11.77
2012-10-09,16.6,12.44,10.78
2012-10-10,1.9,13.44,10.85
2012-10-11,10.3,18.45,9.76
2012-10-12,8.2,12.60,6.81
2012-10-13,5.7,11.82,3.43
2012-10-14,1.5,12.44,0.61
2012-10-15,15.1,13.96,7.98
2012-10-16,0.6,14.78,8.04
2012-10-17,10.9,15.39,9.89
2012-10-18,1.9,15.53,7.39
2012-10-19,0.2,14.58,5.36
2012-10-20,0.2,16.57,4.91
2012-10-21,0.4,13.79,4.66
2012-10-22,0.4,13.95,10.29
2012-10-23,0.6,14.51,11.45
2012-10-24,0.4,13.33,11.67
2012-10-25,1.3,15.27,9.24
2012-10-26,1.3,9.24,3.53
2012-10-27,0.0,8.38,0.27
2012-10-28,0.8,9.88,-0.18
2012-10-29,2.1,13.56,7.50
2012-10-30,0.2,10.90,5.15
2012-10-31,11.3,12.31,4.93
2012-11-01,8.8,9.34,3.10
2012-11-02,5.9,8.65,3.16
2012-11-03,1.7,8.59,3.13
2012-11-04,8.0,10.92,2.40
2012-11-05,1.3,9.49,1.48
2012-11-06,0.2,11.11,2.01
2012-11-07,0.2,10.36,7.91
2012-11-08,0.6,11.45,5.63
2012-11-09,1.7,10.80,6.41
2012-11-10,6.5,10.60,2.80
2012-11-11,2.1,11.26,2.33
2012-11-12,3.2,13.16,7.60
2012-11-13,0.0,13.10,9.40
2012-11-14,0.0,12.75,3.47
2012-11-15,0.0,9.00,2.87
2012-11-16,7.1,12.22,7.09
2012-11-17,0.8,12.29,1.90
2012-11-18,0.0,10.87,0.21
2012-11-19,0.6,13.06,6.81
2012-11-20,10.7,14.30,7.70
2012-11-21,24.8,11.19,5.76
2012-11-22,22.7,13.21,6.40
2012-11-23,0.0,10.45,1.82
2012-11-24,32.6,10.48,0.86
2012-11-25,12.0,11.29,5.87
2012-11-26,4.8,9.00,5.35
2012-11-27,1.3,7.43,4.51
2012-11-28,0.0,7.18,-0.91
2012-11-29,0.2,6.22,-3.51
2012-11-30,0.0,7.84,-2.92
2012-12-01,1.9,7.22,-2.93
2012-12-02,4.8,10.24,-0.74
2012-12-03,4.8,10.82,3.77
2012-12-04,6.9,6.57,2.63
2012-12-05,2.7,5.08,-0.22
2012-12-06,7.8,7.08,-2.68
2012-12-07,5.3,7.33,3.41
2012-12-08,0.0,8.28,0.34
2012-12-09,3.2,7.96,4.50
2012-12-10,0.2,6.83,-1.75
2012-12-11,0.2,3.55,-3.03
2012-12-12,0.2,4.44,-1.90
2012-12-13,0.0,3.08,-0.80
2012-12-14,15.5,11.19,2.69
2012-12-15,5.0,10.43,6.14
2012-12-16,2.5,10.70,6.15
2012-12-17,13.9,9.07,5.22
2012-12-18,1.5,10.35,2.90
2012-12-19,11.1,10.97,4.03
2012-12-20,19.7,12.19,7.56
2012-12-21,2.5,9.54,5.86
2012-12-22,37.0,13.72,7.83
2012-12-23,3.4,13.22,8.18
2012-12-24,20.0,10.45,7.16
2012-12-25,8.0,9.56,5.52
2012-12-26,6.5,11.05,5.94
2012-12-27,4.8,9.33,5.64
2012-12-28,3.6,11.94,6.16
2012-12-29,24.6,11.67,4.10
2012-12-30,5.9,10.42,3.77
2012-12-31,15.3,10.89,6.38
2013-01-01,0.4,7.74,3.72
2013-01-02,0.6,10.40,4.38
2013-01-03,0.2,11.21,9.25
2013-01-04,0.0,10.40,8.28
2013-01-05,0.0,12.22,3.92
2013-01-06,0.2,9.70,0.54
2013-01-07,0.4,11.79,8.32
2013-01-08,0.0,12.15,8.89
2013-01-09,0.4,8.90,5.66
2013-01-10,3.4,7.81,2.58
2013-01-11,0.4,9.04,1.74
2013-01-12,16.6,7.72,2.56
2013-01-13,0.0,4.15,0.55
2013-01-14,5.7,7.50,0.65
2013-01-15,1.9,6.16,1.15
2013-01-16,0.0,3.75,0.86
2013-01-17,0.2,4.45,1.11
2013-01-18,10.9,4.08,0.17
2013-01-19,0.0,0.27,-1.03
2013-01-20,0.0,-0.56,-1.85
2013-01-21,0.0,3.95,-4.04
2013-01-22,17.9,2.38,-0.09
2013-01-23,0.8,0.82,0.03
2013-01-24,4.2,3.19,-2.24
2013-01-25,9.0,9.29,-2.43
2013-01-26,2.3,11.04,3.14
2013-01-27,8.0,11.89,4.57
2013-01-28,13.7,11.26,2.85
2013-01-29,16.4,12.88,8.38
2013-01-30,13.4,12.15,6.42
2013-01-31,4.4,9.92,7.41
2013-02-01,11.1,8.38,4.07
2013-02-02,0.0,6.80,0.96
2013-02-03,0.4,9.62,-0.10
2013-02-04,0.8,9.60,6.21
2013-02-05,4.8,6.81,2.43
2013-02-06,0.6,6.80,1.66
2013-02-07,8.6,5.83,0.96
2013-02-08,1.5,7.18,0.94
2013-02-09,1.3,8.46,5.07
2013-02-10,13.0,8.50,4.04
2013-02-11,0.2,4.80,-1.98
2013-02-12,0.0,3.30,1.44
2013-02-13,2.5,9.60,1.49
2013-02-14,9.7,10.11,5.12
2013-02-15,0.2,10.52,2.83
2013-02-16,0.0,9.78,-0.25
2013-02-17,0.0,9.23,2.54
2013-02-18,0.0,8.42,4.18
2013-02-19,0.0,8.52,0.20
2013-02-20,0.2,5.97,0.15
2013-02-21,0.0,2.15,-1.36
2013-02-22,0.0,1.38,-1.59
2013-02-23,0.0,1.48,-1.40
2013-02-24,0.0,2.83,-2.10
2013-02-25,0.0,4.29,-1.27
2013-02-26,0.0,4.25,2.60
2013-02-27,0.2,3.83,-0.42
2013-02-28,0.0,6.16,-2.21
2013-03-01,0.0,6.18,0.78
2013-03-02,0.0,3.93,-2.54
2013-03-03,0.0,4.41,-3.69
2013-03-04,0.0,6.11,2.89
2013-03-05,0.0,13.34,1.92
2013-03-06,0.2,11.67,5.88
2013-03-07,4.6,10.20,7.98
2013-03-08,1.1,14.96,7.45
2013-03-09,0.4,13.12,2.16
2013-03-10,5.3,7.58,-0.18
2013-03-11,0.0,1.21,-2.67
2013-03-12,0.0,2.72,-3.19
2013-03-13,0.0,7.04,-3.48
2013-03-14,0.2,8.03,-4.75
2013-03-15,16.4,9.34,3.62
2013-03-16,10.9,9.85,2.04
2013-03-17,0.0,9.36,0.40
2013-03-18,0.2,9.94,-2.52
2013-03-19,1.5,9.13,-2.03
2013-03-20,2.5,9.71,1.28
2013-03-21,18.1,7.03,2.72
2013-03-22,24.8,7.69,5.33
2013-03-23,0.0,5.36,0.88
2013-03-24,0.0,0.90,-1.03
2013-03-25,0.0,1.45,-0.97
2013-03-26,0.0,2.09,-1.90
2013-03-27,0.0,4.15,-1.21
2013-03-28,0.0,5.71,-3.54
2013-03-29,0.0,5.68,-2.06
2013-03-30,0.0,6.56,-1.48
2013-03-31,0.0,6.06,-1.39
2013-04-01,0.0,4.06,-0.01
2013-04-02,0.0,8.46,-1.91
2013-04-03,0.0,8.21,-2.36
2013-04-04,0.0,3.77,-0.71
2013-04-05,0.0,7.78,-1.08
2013-04-06,0.0,9.72,-4.51
2013-04-07,0.2,7.14,-2.73
2013-04-08,0.4,7.08,3.12
2013-04-09,2.5,7.09,3.02
2013-04-10,4.0,9.16,0.55
2013-04-11,5.9,13.82,4.57
2013-04-12,7.8,11.69,5.16
2013-04-13,3.2,13.50,3.99
2013-04-14,2.3,15.23,10.60
2013-04-15,0.4,15.35,9.84
2013-04-16,0.4,15.90,9.03
2013-04-17,0.2,14.55,8.57
2013-04-18,0.4,13.01,6.87
2013-04-19,2.1,12.36,2.80
2013-04-20,0.0,13.59,0.18
2013-04-21,0.6,10.45,-1.76
2013-04-22,1.1,12.39,4.83
2013-04-23,0.0,15.04,6.62
2013-04-24,0.0,15.25,7.52
2013-04-25,0.6,13.80,7.20
2013-04-26,0.6,10.49,3.20
2013-04-27,0.6,11.90,0.84
2013-04-28,1.5,11.63,-0.14
2013-04-29,0.0,12.23,4.21
2013-04-30,0.2,13.40,1.20
2013-05-01,0.0,15.08,-0.75
2013-05-02,0.2,16.98,1.90
2013-05-03,0.0,14.21,2.60
2013-05-04,2.1,13.57,8.23
2013-05-05,0.0,16.83,4.95
2013-05-06,0.2,18.70,2.22
2013-05-07,0.8,18.76,6.50
2013-05-08,4.2,15.18,6.88
2013-05-09,6.9,12.10,6.84
2013-05-10,7.8,14.11,6.25
2013-05-11,2.5,12.67,5.51
2013-05-12,0.4,11.57,5.22
2013-05-13,1.7,12.37,7.25
2013-05-14,15.3,9.64,2.29
2013-05-15,11.8,11.38,2.87
2013-05-16,12.2,9.99,0.78
2013-05-17,5.5,13.66,-0.64
2013-05-18,0.2,15.16,2.4
2013-05-19,0.0,15.56,4.56
2013-05-20,0.0,15.27,6.64
2013-05-21,0.0,11.86,8.07
2013-05-22,0.0,14.32,5.84
2013-05-23,0.0,11.28,5.71
2013-05-24,0.2,11.86,5.3
2013-05-25,0.0,15.71,1.51
2013-05-26,0.2,16.89,1.6
2013-05-27,2.1,14.08,2.3
2013-05-28,0.8,13.22,3.64
2013-05-29,1.5,15.72,7.02
2013-05-30,0.0,17.31,9.49
2013-05-31,0.2,18.89,7.78
2013-06-01,0.0,15,7.739
2013-06-02,0.0,17.43,7.338
2013-06-03,0.0,19.76,5.316
2013-06-04,0.0,19.94,2.914
2013-06-05,0.0,19.66,7.945
2013-06-06,0.2,21.33,7.213
2013-06-07,0.0,20.08,11.21
2013-06-08,0.0,20.38,9.51
2013-06-09,0.0,20.25,6.132
2013-06-10,1.1,16.1,5.803
2013-06-11,2.1,18.38,10.32
2013-06-12,1.9,18.45,12.55
2013-06-13,1.9,16.40,9.50
2013-06-14,1.3,16.88,9.84
2013-06-15,6.3,15.94,8.88
2013-06-16,5.3,14.01,9.69
2013-06-17,3.6,20.70,10.80
2013-06-18,0.2,21.83,13.63
2013-06-19,0.0,21.92,11.89
2013-06-20,6.1,16.99,12.07
2013-06-21,0.8,16.70,11.53
2013-06-22,4.8,16.14,11.65
2013-06-23,1.9,13.12,9.97
2013-06-24,0.0,16.75,7.13
2013-06-25,0.0,20.21,3.76
2013-06-26,0.0,19.44,7.91
2013-06-27,1.9,18.75,9.11
2013-06-28,1.5,16.39,13.50
2013-06-29,0.0,17.92,12.77
2013-06-30,0.2,19.11,11.04
2013-07-01,0.0,18.65,9.69
2013-07-02,0.2,16.05,7.83
2013-07-03,0.4,16.67,12.42
2013-07-04,0.4,20.11,11.61
2013-07-05,0.0,23.02,10.70
2013-07-06,0.0,22.27,6.17
2013-07-07,0.0,26.89,8.25
2013-07-08,0.2,27.09,12.77
2013-07-09,0.0,26.08,13.19
2013-07-10,0.0,26.38,9.65
2013-07-11,0.0,23.30,10.76
2013-07-12,0.0,26.59,6.89
2013-07-13,0.0,29.60,11.33
2013-07-14,0.0,28.92,10.81
2013-07-15,0.0,27.06,12.44
2013-07-16,0.2,25.17,11.13
2013-07-17,0.0,27.03,11.18
2013-07-18,0.0,29.49,11.68
2013-07-19,0.0,28.36,11.60
2013-07-20,0.2,26.80,12.98
2013-07-21,0.0,26.24,14.65
2013-07-22,0.0,29.13,15.14
2013-07-23,0.0,24.90,14.02
2013-07-24,7.4,24.39,13.35
2013-07-25,1.1,23.72,12.99
2013-07-26,0.0,24.48,10.27
2013-07-27,0.2,21.17,9.01
2013-07-28,6.1,20.98,12.68
2013-07-29,2.3,21.49,14.66
2013-07-30,1.3,21.21,14.61
2013-07-31,1.1,21.07,15.79
2013-08-01,0.0,27.18,14.04
2013-08-02,13.2,23.26,11.87
2013-08-03,8.0,21.65,13.59
2013-08-04,4.2,20.24,15.27
2013-08-05,17.2,19.81,11.92
2013-08-06,0.2,21.63,10.16
2013-08-07,0.0,23.12,8.63
2013-08-08,0.0,23.17,9.56
2013-08-09,1.1,20.03,11.37
2013-08-10,2.1,21.54,12.06
2013-08-11,1.3,20.87,12.43
2013-08-12,0.0,19.09,11.59
2013-08-13,0.0,18.00,7.73
2013-08-14,5.7,22.52,11.45
2013-08-15,2.5,22.71,16.52
2013-08-16,0.8,21.60,12.13
2013-08-17,2.7,18.81,12.39
2013-08-18,7.1,20.62,12.12
2013-08-19,0.0,19.47,11.03
2013-08-20,0.2,22.92,9.78
2013-08-21,0.0,24.45,9.87
2013-08-22,0.0,24.53,12.75
2013-08-23,0.6,23.97,11.00
2013-08-24,0.2,18.24,11.62
2013-08-25,0.2,19.79,10.26
2013-08-26,0.0,24.37,12.04
2013-08-27,0.2,23.11,10.14
2013-08-28,0.2,23.61,9.14
2013-08-29,0.2,21.14,8.84
2013-08-30,0.4,20.06,13.89
2013-08-31,0.2,17.91,6.06
2013-09-01,0.0,19.56,4.57
2013-09-02,0.0,20.73,11.45
2013-09-03,0.0,25.75,11.86
2013-09-04,0.2,25.26,9.40
2013-09-05,0.2,22.57,10.47
2013-09-06,0.0,18.09,7.85
2013-09-07,6.4,16.99,6.94
2013-09-08,2.8,16.16,7.81
2013-09-09,3.2,18.77,10.66
2013-09-10,0.0,17.34,9.89
